Weather in Novogol'skoe

Russia / Voronezh Oblast     51°29′07″N   41°27′54″E
temp.,
°C
wind,
m/s
gust,
m/s
humid.,
%
clouds,
%
prec.,
mm/h
press.,
hPa
HPBL,
m
3 march, wed
wed300:000nw5997100 0.1 1009471
03:00−2nw4109596 0.3 1010226
06:00−4nw5119530 0.0 1011320
09:00−2nnw6109162 0.1 1013823
12:00−2nnw7982100 0.2 1015945
15:00−2nw6108587 0.2 1017762
18:00−5wnw4118841 0.0 1018313
21:00−5w4119020 0.0 1019245
4 march, thu
thu400:00−3wsw5119477 0.0 1017409
03:00−2wsw5119588 0.1 1015648
06:00−2wsw71392100 0.1 1014628
09:00−1wsw8149194 0.1 1013522
12:00+1wsw8158941 0.0 1011663
15:00+2wsw8168421 0.0 1009754
18:00+1sw717765 0.0 1007570
21:00+2sw7178135 0.0 1006639
5 march, fri
fri500:00+2sw7169195 0.1 1004567
03:00+2wsw6149697 0.2 1003471
06:00+2wsw51498100 0.3 1003585
09:00+1w61298100 1.1 1004572
12:00+2w61194100 0.1 1006907
15:00+2wnw4886100 0.2 1008753
18:00−2n4696100 0.3 1009373
21:00−2nne4795100 1.4 1010358
6 march, sat
sat600:00−3nne5795100 1.0 1010367
03:00−4n5792100 1.4 1011403
06:00−6n489284 0.0 1013278
09:00−5nnw468886 0.0 1014300
12:00−3nnw468066 0.0 1016591
15:00−3nnw467033 0.0 1016706
18:00−5nnw22820 0.0 101679
21:00−6ene11850 0.0 101721
7 march, sun
sun700:00−6sse018451 0.0 101721
03:00−6se009475 0.1 101767
06:00−7ssw129690 0.2 101729
09:00−5wsw598659 0.2 1016677
12:00−3sw8136582 0.0 10141120
15:00−2sw10156290 0.0 10111266
18:00−2sw8176597 0.0 10091114
21:00−2sw8166890 0.0 1007926